EDT,Max TemperatureF,Mean TemperatureF,Min TemperatureF,Max Dew PointF,MeanDew PointF,Min DewpointF,Max Humidity, Mean Humidity, Min Humidity, Max Sea Level PressureIn, Mean Sea Level PressureIn, Min Sea Level PressureIn, Max VisibilityMiles, Mean VisibilityMiles, Min VisibilityMiles, Max Wind SpeedMPH, Mean Wind SpeedMPH, Max Gust SpeedMPH,PrecipitationIn, CloudCover, Events, WindDirDegrees
2013-6-1,89,76,62,67,64,60,93,69,45,30.01,29.96,29.91,10,9,5,14,4,23,0.00,0,,205
2013-6-2,86,75,66,67,65,63,90,74,51,29.92,29.85,29.79,10,10,9,17,7,26,0.00,0,,183
2013-6-3,77,70,64,67,64,44,100,86,48,29.87,29.83,29.78,10,7,0,10,4,,0.63,7,Fog-Rain,212
2013-6-4,71,62,53,51,42,35,89,50,36,30.10,29.97,29.88,10,10,10,16,8,25,0.00,1,,315
2013-6-5,73,60,46,50,46,42,93,67,34,30.20,30.16,30.11,10,9,2,12,1,21,0.00,1,,209
2013-6-6,70,59,48,56,52,46,100,83,46,30.20,30.16,30.10,10,8,0,10,1,16,0.04,5,Fog-Rain,161
2013-6-7,61,58,55,59,56,53,100,93,88,30.06,29.91,29.75,10,4,1,15,5,23,3.07,8,Rain,57
2013-6-8,77,64,53,62,56,53,100,82,58,30.04,29.78,29.60,10,7,2,13,8,17,0.78,6,Rain,348
2013-6-9,80,67,55,60,55,52,97,69,40,30.19,30.12,30.05,10,10,10,10,3,,0.00,1,,316
2013-6-10,71,63,55,61,58,53,94,86,63,30.20,30.10,29.95,10,8,2,8,2,,0.58,6,Rain,69
2013-6-11,75,67,59,68,61,57,100,88,66,29.94,29.70,29.56,10,6,0,21,5,26,1.53,7,Fog-Rain-Thunderstorm,325
2013-6-12,72,64,55,55,52,50,90,66,49,29.84,29.72,29.62,10,10,10,17,7,26,0.00,4,,308
2013-6-13,60,55,50,56,53,48,97,92,86,29.83,29.73,29.60,10,7,2,16,4,24,0.87,7,Rain,53
2013-6-14,73,62,51,55,51,49,100,81,46,29.83,29.68,29.59,10,8,2,15,10,23,1.04,5,Rain,15
2013-6-15,78,64,50,56,49,41,97,64,28,29.98,29.92,29.84,10,10,10,12,3,,0.01,0,,330
2013-6-16,77,64,50,64,55,48,94,73,42,29.98,29.88,29.75,10,10,10,13,3,20,0.00,3,,207
2013-6-17,84,70,57,63,60,56,97,77,44,29.93,29.88,29.81,10,8,2,22,4,44,0.14,2,Rain-Thunderstorm,302
2013-6-18,81,68,57,64,60,57,100,91,50,29.94,29.91,29.83,10,5,0,21,3,29,0.73,6,Fog-Rain-Thunderstorm,41
2013-6-19,75,64,54,58,52,38,94,71,26,30.16,29.99,29.89,10,10,10,12,6,,0.01,4,,4
2013-6-20,77,64,50,56,50,46,97,65,34,30.28,30.24,30.18,10,10,10,12,2,,0.00,0,,223
2013-6-21,81,67,54,62,57,53,97,69,52,30.29,30.26,30.22,10,10,10,10,3,,0.00,1,,213
2013-6-22,82,70,57,60,57,55,93,66,39,30.25,30.21,30.15,10,10,9,13,3,20,0.00,0,,189
2013-6-23,87,74,61,68,64,59,93,72,44,30.19,30.12,30.06,10,10,9,15,4,22,0.00,1,,208
2013-6-24,91,80,69,72,69,64,94,76,47,30.06,30.00,29.91,10,10,8,13,4,30,0.01,3,Rain-Thunderstorm,239
2013-6-25,91,77,64,71,67,64,100,79,43,29.97,29.88,29.77,10,7,1,12,2,21,0.03,1,Thunderstorm,207
2013-6-26,84,76,69,73,69,66,94,82,55,29.84,29.79,29.76,10,8,4,8,2,,0.04,3,Rain-Thunderstorm,277
2013-6-27,75,72,69,70,69,66,100,92,82,29.84,29.79,29.69,9,5,0,8,3,,0.35,7,Fog-Rain-Thunderstorm,65
2013-6-28,82,75,69,72,69,66,97,82,65,29.69,29.56,29.50,10,8,2,15,8,25,0.17,6,Rain-Thunderstorm,177
2013-6-29,81,76,71,70,68,66,96,83,62,29.73,29.60,29.51,10,8,2,16,6,23,0.01,6,Rain,182
2013-6-30,82,76,71,70,70,68,94,84,67,29.95,29.86,29.74,10,8,2,12,6,20,0.06,7,Rain,178